| time (UTC) | temp F | wind direction | speed MPH | gust MPH | rain 1hr in | rain 24hr in | rain mn in | humidity % | barometer mb |
| 20260906003808 | 91 | 114 | 5.0 | 10.0 | 0.00 | 0.00 | 0.00 | 39 | 1014.4 |
| 20260906003308 | 92 | 127 | 4.0 | 12.0 | 0.00 | 0.00 | 0.00 | 39 | 1014.3 |
| 20260906002807 | 92 | 138 | 7.0 | 15.0 | 0.00 | 0.00 | 0.00 | 39 | 1014.4 |
| 20260906002530 | 92 | 117 | 6.0 | 15.0 | 0.00 | 0.00 | 0.00 | 39 | 1014.4 |
| 20260906001807 | 92 | 86 | 8.0 | 14.0 | 0.00 | 0.00 | 0.00 | 38 | 1014.3 |
| 20260906001741 | 92 | 109 | 8.0 | 14.0 | 0.00 | 0.00 | 0.00 | 38 | 1014.2 |
| 20260906000809 | 92 | 134 | 6.0 | 15.0 | 0.00 | 0.00 | 0.00 | 38 | 1014.2 |
| 20260906000311 | 93 | 110 | 7.0 | 15.0 | 0.00 | 0.00 | 0.00 | 38 | 1014.0 |
| 20260905235812 | 93 | 130 | 7.0 | 14.0 | 0.00 | 0.00 | 0.00 | 38 | 1013.9 |
| 20260905235308 | 94 | 131 | 7.0 | 14.0 | 0.00 | 0.00 | 0.00 | 37 | 1013.9 |
| 20260905235036 | 95 | 104 | 7.0 | 14.0 | 0.00 | 0.00 | 0.00 | 34 | 1013.8 |
| 20260905234814 | 95 | 104 | 7.0 | 14.0 | 0.00 | 0.00 | 0.00 | 34 | 1013.8 |
| 20260905234313 | 94 | 118 | 4.0 | 10.0 | 0.00 | 0.00 | 0.00 | 34 | 1013.8 |
| 20260905234044 | 94 | 161 | 4.0 | 9.0 | 0.00 | 0.00 | 0.00 | 34 | 1013.7 |
| 20260905233812 | 94 | 161 | 4.0 | 9.0 | 0.00 | 0.00 | 0.00 | 34 | 1013.7 |
| 20260905233521 | 94 | 133 | 4.0 | 11.0 | 0.00 | 0.00 | 0.00 | 35 | 1013.4 |
| 20260905233401 | 94 | 97 | 5.0 | 9.0 | 0.00 | 0.00 | 0.00 | 34 | 1013.5 |
| 20260905232308 | 94 | 106 | 6.0 | 11.0 | 0.00 | 0.00 | 0.00 | 34 | 1013.4 |
| 20260905231814 | 94 | 133 | 5.0 | 10.0 | 0.00 | 0.00 | 0.00 | 35 | 1013.4 |
| 20260905231311 | 94 | 111 | 4.0 | 13.0 | 0.00 | 0.00 | 0.00 | 35 | 1013.4 |
| 20260905230904 | 95 | 97 | 6.0 | 12.0 | 0.00 | 0.00 | 0.00 | 34 | 1013.4 |
| 20260905230829 | 94 | 142 | 6.0 | 13.0 | 0.00 | 0.00 | 0.00 | 35 | 1013.4 |
| 20260905225810 | 95 | 113 | 5.0 | 10.0 | 0.00 | 0.00 | 0.00 | 33 | 1013.4 |
| 20260905225737 | 95 | 125 | 4.0 | 9.0 | 0.00 | 0.00 | 0.00 | 34 | 1013.4 |
| 20260905224812 | 95 | 180 | 4.0 | 10.0 | 0.00 | 0.00 | 0.00 | 33 | 1013.5 |
| 20260905224537 | 95 | 200 | 4.0 | 13.0 | 0.00 | 0.00 | 0.00 | 33 | 1013.4 |
| 20260905224311 | 95 | 200 | 4.0 | 13.0 | 0.00 | 0.00 | 0.00 | 33 | 1013.4 |
| 20260905223811 | 96 | 152 | 5.0 | 13.0 | 0.00 | 0.00 | 0.00 | 32 | 1013.5 |
| 20260905223536 | 96 | 110 | 3.0 | 12.0 | 0.00 | 0.00 | 0.00 | 32 | 1013.4 |
| 20260905223320 | 96 | 110 | 3.0 | 12.0 | 0.00 | 0.00 | 0.00 | 32 | 1013.4 |
| 20260905222818 | 98 | 121 | 6.0 | 13.0 | 0.00 | 0.00 | 0.00 | 32 | 1013.4 |
| 20260905222808 | 97 | 87 | 5.0 | 12.0 | 0.00 | 0.00 | 0.00 | 31 | 1013.4 |
| 20260905221812 | 98 | 188 | 4.0 | 16.0 | 0.00 | 0.00 | 0.00 | 32 | 1013.4 |
| 20260905221720 | 98 | 137 | 6.0 | 16.0 | 0.00 | 0.00 | 0.00 | 32 | 1013.4 |
| 20260905220812 | 97 | 85 | 6.0 | 13.0 | 0.00 | 0.00 | 0.00 | 33 | 1013.5 |
| 20260905220313 | 95 | 149 | 4.0 | 11.0 | 0.00 | 0.00 | 0.00 | 34 | 1013.5 |
| 20260905215812 | 96 | 103 | 5.0 | 13.0 | 0.00 | 0.00 | 0.00 | 33 | 1013.6 |
| 20260905215307 | 97 | 103 | 8.0 | 14.0 | 0.00 | 0.00 | 0.00 | 32 | 1013.6 |
| 20260905214812 | 98 | 96 | 5.0 | 14.0 | 0.00 | 0.00 | 0.00 | 33 | 1013.7 |
| 20260905214324 | 98 | 180 | 7.0 | 16.0 | 0.00 | 0.00 | 0.00 | 33 | 1013.8 |
| 20260905214033 | 98 | 124 | 7.0 | 16.0 | 0.00 | 0.00 | 0.00 | 33 | 1013.8 |
| 20260905213811 | 98 | 124 | 7.0 | 16.0 | 0.00 | 0.00 | 0.00 | 33 | 1013.8 |
| 20260905213312 | 99 | 96 | 6.0 | 13.0 | 0.00 | 0.00 | 0.00 | 32 | 1013.9 |
| 20260905212810 | 99 | 109 | 6.0 | 13.0 | 0.00 | 0.00 | 0.00 | 32 | 1013.8 |
| 20260905212458 | 99 | 125 | 4.0 | 16.0 | 0.00 | 0.00 | 0.00 | 32 | 1013.9 |
| 20260905212002 | 99 | 144 | 5.0 | 16.0 | 0.00 | 0.00 | 0.00 | 32 | 1014.0 |
| 20260905211213 | 98 | 120 | 5.0 | 20.0 | 0.00 | 0.00 | 0.00 | 33 | 1014.3 |
| 20260905210820 | 99 | 92 | 6.0 | 17.0 | 0.00 | 0.00 | 0.00 | 32 | 1014.2 |
| 20260905205812 | 98 | 102 | 7.0 | 20.0 | 0.00 | 0.00 | 0.00 | 32 | 1014.3 |
| 20260905205307 | 99 | 107 | 7.0 | 15.0 | 0.00 | 0.00 | 0.00 | 33 | 1014.4 |
| 20260905205034 | 99 | 197 | 6.0 | 15.0 | 0.00 | 0.00 | 0.00 | 33 | 1014.5 |
| 20260905204821 | 99 | 197 | 6.0 | 15.0 | 0.00 | 0.00 | 0.00 | 33 | 1014.5 |
| 20260905204312 | 99 | 226 | 6.0 | 13.0 | 0.00 | 0.00 | 0.00 | 34 | 1014.6 |
| 20260905203808 | 98 | 111 | 6.0 | 12.0 | 0.00 | 0.00 | 0.00 | 31 | 1014.7 |
| 20260905203324 | 98 | 182 | 4.0 | 11.0 | 0.00 | 0.00 | 0.00 | 33 | 1014.8 |
| 20260905202813 | 98 | 121 | 5.0 | 15.0 | 0.00 | 0.00 | 0.00 | 33 | 1014.8 |
| 20260905202309 | 98 | 142 | 6.0 | 15.0 | 0.00 | 0.00 | 0.00 | 32 | 1014.8 |
| 20260905201814 | 98 | 135 | 5.0 | 12.0 | 0.00 | 0.00 | 0.00 | 33 | 1014.9 |
| 20260905201342 | 98 | 114 | 4.0 | 12.0 | 0.00 | 0.00 | 0.00 | 35 | 1015.1 |
| 20260905201318 | 98 | 133 | 5.0 | 12.0 | 0.00 | 0.00 | 0.00 | 33 | 1014.9 |
| 20260905200626 | 98 | 124 | 6.0 | 12.0 | 0.00 | 0.00 | 0.00 | 33 | 1015.2 |
| 20260905200038 | 99 | 131 | 6.0 | 12.0 | 0.00 | 0.00 | 0.00 | 33 | 1015.2 |
| 20260905195657 | 99 | 158 | 5.0 | 14.0 | 0.00 | 0.00 | 0.00 | 34 | 1015.3 |
| 20260905195455 | 99 | 148 | 5.0 | 12.0 | 0.00 | 0.00 | 0.00 | 34 | 1015.3 |
| 20260905194727 | 98 | 155 | 5.0 | 15.0 | 0.00 | 0.00 | 0.00 | 35 | 1015.3 |
| 20260905194204 | 98 | 93 | 6.0 | 15.0 | 0.00 | 0.00 | 0.00 | 33 | 1015.3 |
| 20260905193307 | 98 | 148 | 6.0 | 13.0 | 0.00 | 0.00 | 0.00 | 34 | 1015.3 |
| 20260905192807 | 98 | 140 | 7.0 | 13.0 | 0.00 | 0.00 | 0.00 | 34 | 1015.5 |
| 20260905192311 | 98 | 237 | 5.0 | 15.0 | 0.00 | 0.00 | 0.00 | 34 | 1015.5 |
| 20260905191810 | 97 | 169 | 7.0 | 15.0 | 0.00 | 0.00 | 0.00 | 34 | 1015.6 |
| 20260905191536 | 97 | 82 | 6.0 | 15.0 | 0.00 | 0.00 | 0.00 | 34 | 1015.6 |
| 20260905190811 | 97 | 176 | 6.0 | 17.0 | 0.00 | 0.00 | 0.00 | 34 | 1015.7 |
| 20260905190310 | 97 | 221 | 6.0 | 17.0 | 0.00 | 0.00 | 0.00 | 35 | 1015.7 |
| 20260905185811 | 97 | 133 | 6.0 | 14.0 | 0.00 | 0.00 | 0.00 | 36 | 1015.8 |
| 20260905185311 | 97 | 124 | 6.0 | 14.0 | 0.00 | 0.00 | 0.00 | 36 | 1015.8 |
| 20260905185035 | 97 | 223 | 7.0 | 14.0 | 0.00 | 0.00 | 0.00 | 37 | 1015.9 |
| 20260905184905 | 97 | 193 | 5.0 | 14.0 | 0.00 | 0.00 | 0.00 | 37 | 1015.9 |
| 20260905183807 | 96 | 99 | 5.0 | 14.0 | 0.00 | 0.00 | 0.00 | 39 | 1016.1 |
| 20260905183536 | 96 | 102 | 4.0 | 14.0 | 0.00 | 0.00 | 0.00 | 39 | 1016.2 |
| 20260905182809 | 96 | 190 | 6.0 | 14.0 | 0.00 | 0.00 | 0.00 | 39 | 1016.2 |
| 20260905182312 | 95 | 109 | 4.0 | 12.0 | 0.00 | 0.00 | 0.00 | 41 | 1016.2 |
| 20260905181811 | 95 | 162 | 7.0 | 14.0 | 0.00 | 0.00 | 0.00 | 40 | 1016.3 |
| 20260905181308 | 95 | 244 | 4.0 | 14.0 | 0.00 | 0.00 | 0.00 | 41 | 1016.3 |
| 20260905180807 | 94 | 134 | 6.0 | 14.0 | 0.00 | 0.00 | 0.00 | 41 | 1016.4 |
| 20260905180311 | 94 | 171 | 3.0 | 15.0 | 0.00 | 0.00 | 0.00 | 40 | 1016.4 |
| 20260905175810 | 94 | 111 | 7.0 | 15.0 | 0.00 | 0.00 | 0.00 | 41 | 1016.4 |
| 20260905175538 | 93 | 195 | 7.0 | 12.0 | 0.00 | 0.00 | 0.00 | 43 | 1016.6 |
| 20260905174807 | 93 | 199 | 6.0 | 14.0 | 0.00 | 0.00 | 0.00 | 42 | 1016.7 |
| 20260905174309 | 93 | 172 | 8.0 | 14.0 | 0.00 | 0.00 | 0.00 | 43 | 1016.7 |
| 20260905173811 | 93 | 217 | 7.0 | 11.0 | 0.00 | 0.00 | 0.00 | 42 | 1016.8 |
| 20260905173307 | 93 | 221 | 6.0 | 15.0 | 0.00 | 0.00 | 0.00 | 44 | 1016.8 |
| 20260905172807 | 92 | 175 | 8.0 | 15.0 | 0.00 | 0.00 | 0.00 | 44 | 1016.8 |
| 20260905172312 | 92 | 195 | 7.0 | 14.0 | 0.00 | 0.00 | 0.00 | 45 | 1016.8 |
| 20260905171809 | 92 | 171 | 5.0 | 14.0 | 0.00 | 0.00 | 0.00 | 46 | 1016.9 |
| 20260905171705 | 91 | 157 | 6.0 | 14.0 | 0.00 | 0.00 | 0.00 | 46 | 1016.9 |
| 20260905170812 | 91 | 197 | 8.0 | 12.0 | 0.00 | 0.00 | 0.00 | 47 | 1016.9 |
| 20260905170308 | 90 | 123 | 5.0 | 12.0 | 0.00 | 0.00 | 0.00 | 48 | 1016.9 |
| 20260905165811 | 90 | 164 | 5.0 | 13.0 | 0.00 | 0.00 | 0.00 | 48 | 1016.8 |
| 20260905165307 | 90 | 188 | 8.0 | 15.0 | 0.00 | 0.00 | 0.00 | 48 | 1016.9 |
| 20260905164810 | 89 | 130 | 9.0 | 15.0 | 0.00 | 0.00 | 0.00 | 49 | 1016.7 |
| 20260905164308 | 89 | 188 | 4.0 | 13.0 | 0.00 | 0.00 | 0.00 | 52 | 1016.7 |
| 20260905164035 | 88 | 357 | 7.0 | 12.0 | 0.00 | 0.00 | 0.00 | 51 | 1016.8 |
| 20260905163809 | 88 | 357 | 7.0 | 12.0 | 0.00 | 0.00 | 0.00 | 51 | 1016.8 |
| 20260905163310 | 88 | 166 | 6.0 | 12.0 | 0.00 | 0.00 | 0.00 | 52 | 1016.8 |
| 20260905162809 | 87 | 173 | 6.0 | 14.0 | 0.00 | 0.00 | 0.00 | 54 | 1016.8 |
| 20260905162713 | 87 | 151 | 7.0 | 14.0 | 0.00 | 0.00 | 0.00 | 54 | 1016.8 |
| 20260905161810 | 86 | 6 | 6.0 | 13.0 | 0.00 | 0.00 | 0.00 | 55 | 1016.9 |
| 20260905161538 | 85 | 172 | 6.0 | 13.0 | 0.00 | 0.00 | 0.00 | 56 | 1016.9 |
| 20260905161310 | 85 | 172 | 6.0 | 13.0 | 0.00 | 0.00 | 0.00 | 56 | 1016.9 |
| 20260905160809 | 85 | 213 | 5.0 | 13.0 | 0.00 | 0.00 | 0.00 | 56 | 1016.9 |
| 20260905160511 | 84 | 171 | 7.0 | 13.0 | 0.00 | 0.00 | 0.00 | 59 | 1016.9 |
| 20260905160357 | 85 | 66 | 8.0 | 13.0 | 0.00 | 0.00 | 0.00 | 57 | 1016.9 |
| 20260905155308 | 84 | 202 | 7.0 | 16.0 | 0.00 | 0.00 | 0.00 | 57 | 1016.9 |
| 20260905154808 | 83 | 188 | 7.0 | 16.0 | 0.00 | 0.00 | 0.00 | 59 | 1016.9 |
| 20260905154311 | 84 | 199 | 6.0 | 15.0 | 0.00 | 0.00 | 0.00 | 58 | 1017.1 |
| 20260905153806 | 83 | 164 | 6.0 | 15.0 | 0.00 | 0.00 | 0.00 | 58 | 1016.9 |
| 20260905153308 | 83 | 199 | 3.0 | 16.0 | 0.00 | 0.00 | 0.00 | 59 | 1016.9 |
| 20260905152812 | 82 | 227 | 9.0 | 16.0 | 0.00 | 0.00 | 0.00 | 59 | 1016.9 |
| 20260905152308 | 82 | 188 | 6.0 | 14.0 | 0.00 | 0.00 | 0.00 | 60 | 1016.9 |
| 20260905151952 | 81 | 152 | 9.0 | 15.0 | 0.00 | 0.00 | 0.00 | 61 | 1016.9 |
| 20260905151908 | 82 | 197 | 6.0 | 15.0 | 0.00 | 0.00 | 0.00 | 61 | 1016.9 |
| 20260905151317 | 81 | 152 | 9.0 | 15.0 | 0.00 | 0.00 | 0.00 | 61 | 1016.9 |
| 20260905150807 | 81 | 223 | 6.0 | 13.0 | 0.00 | 0.00 | 0.00 | 62 | 1016.9 |
| 20260905150307 | 81 | 192 | 5.0 | 13.0 | 0.00 | 0.00 | 0.00 | 62 | 1016.9 |
| 20260905150032 | 80 | 173 | 4.0 | 14.0 | 0.00 | 0.00 | 0.00 | 63 | 1017.1 |
| 20260905145308 | 80 | 154 | 6.0 | 14.0 | 0.00 | 0.00 | 0.00 | 64 | 1017.1 |
| 20260905144808 | 80 | 134 | 6.0 | 14.0 | 0.00 | 0.00 | 0.00 | 65 | 1017.1 |
| 20260905144307 | 79 | 204 | 6.0 | 14.0 | 0.00 | 0.00 | 0.00 | 65 | 1017.1 |
| 20260905143808 | 79 | 152 | 6.0 | 12.0 | 0.00 | 0.00 | 0.00 | 65 | 1017.1 |
| 20260905143307 | 79 | 93 | 4.0 | 12.0 | 0.00 | 0.00 | 0.00 | 66 | 1016.9 |
| 20260905143143 | 78 | 158 | 5.0 | 12.0 | 0.00 | 0.00 | 0.00 | 66 | 1017.1 |
| 20260905142307 | 78 | 133 | 6.0 | 13.0 | 0.00 | 0.00 | 0.00 | 67 | 1017.1 |
| 20260905141806 | 78 | 214 | 3.0 | 13.0 | 0.00 | 0.00 | 0.00 | 67 | 1017.2 |
| 20260905141308 | 78 | 192 | 5.0 | 9.0 | 0.00 | 0.00 | 0.00 | 67 | 1017.1 |
| 20260905140807 | 77 | 142 | 4.0 | 11.0 | 0.00 | 0.00 | 0.00 | 68 | 1017.1 |
| 20260905140307 | 76 | 145 | 5.0 | 11.0 | 0.00 | 0.00 | 0.00 | 68 | 1017.2 |
| 20260905135806 | 76 | 123 | 5.0 | 11.0 | 0.00 | 0.00 | 0.00 | 69 | 1017.2 |
| 20260905135307 | 76 | 155 | 3.0 | 10.0 | 0.00 | 0.00 | 0.00 | 70 | 1017.1 |
| 20260905134808 | 75 | 113 | 5.0 | 10.0 | 0.00 | 0.00 | 0.00 | 70 | 1017.1 |
| 20260905134636 | 75 | 118 | 3.0 | 10.0 | 0.00 | 0.00 | 0.00 | 71 | 1017.1 |
| 20260905134118 | 74 | 144 | 1.0 | 7.0 | 0.00 | 0.00 | 0.00 | 72 | 1017.1 |
| 20260905133307 | 74 | 103 | 4.0 | 7.0 | 0.00 | 0.00 | 0.00 | 73 | 1017.1 |
| 20260905132806 | 74 | 100 | 2.0 | 6.0 | 0.00 | 0.00 | 0.00 | 73 | 1017.1 |
| 20260905132306 | 73 | 140 | 2.0 | 5.0 | 0.00 | 0.00 | 0.00 | 74 | 1017.1 |
| 20260905131806 | 73 | 178 | 2.0 | 5.0 | 0.00 | 0.00 | 0.00 | 75 | 1016.9 |
| 20260905131631 | 73 | 157 | 2.0 | 5.0 | 0.00 | 0.00 | 0.00 | 75 | 1016.8 |
| 20260905130807 | 72 | 165 | 2.0 | 6.0 | 0.00 | 0.00 | 0.00 | 75 | 1016.7 |
| 20260905130306 | 72 | 169 | 2.0 | 6.0 | 0.00 | 0.00 | 0.00 | 76 | 1016.7 |
| 20260905125814 | 72 | 117 | 2.0 | 6.0 | 0.00 | 0.00 | 0.00 | 76 | 1016.8 |
| 20260905125307 | 72 | 124 | 4.0 | 6.0 | 0.00 | 0.00 | 0.00 | 76 | 1016.7 |
| 20260905125140 | 72 | 116 | 3.0 | 6.0 | 0.00 | 0.00 | 0.00 | 76 | 1016.6 |
| 20260905124314 | 72 | 128 | 4.0 | 6.0 | 0.00 | 0.00 | 0.00 | 76 | 1016.7 |
| 20260905123807 | 72 | 120 | 3.0 | 10.0 | 0.00 | 0.00 | 0.00 | 76 | 1016.4 |
| 20260905123306 | 72 | 128 | 5.0 | 10.0 | 0.00 | 0.00 | 0.00 | 75 | 1016.5 |
| 20260905122806 | 72 | 135 | 4.0 | 7.0 | 0.00 | 0.00 | 0.00 | 74 | 1016.5 |
| 20260905122307 | 73 | 111 | 5.0 | 9.0 | 0.00 | 0.00 | 0.00 | 74 | 1016.4 |
| 20260905121806 | 73 | 141 | 4.0 | 11.0 | 0.00 | 0.00 | 0.00 | 74 | 1016.4 |
| 20260905121306 | 73 | 121 | 5.0 | 11.0 | 0.00 | 0.00 | 0.00 | 74 | 1016.4 |
| 20260905120807 | 73 | 89 | 4.0 | 10.0 | 0.00 | 0.00 | 0.00 | 74 | 1016.4 |
| 20260905120307 | 73 | 102 | 4.0 | 10.0 | 0.00 | 0.00 | 0.00 | 74 | 1016.4 |
| 20260905115806 | 73 | 123 | 4.0 | 7.0 | 0.00 | 0.00 | 0.00 | 73 | 1016.4 |
| 20260905115306 | 73 | 79 | 4.0 | 7.0 | 0.00 | 0.00 | 0.00 | 73 | 1016.4 |
| 20260905114806 | 73 | 116 | 4.0 | 7.0 | 0.00 | 0.00 | 0.00 | 73 | 1016.3 |
| 20260905114308 | 73 | 127 | 2.0 | 9.0 | 0.00 | 0.00 | 0.00 | 73 | 1016.3 |
| 20260905113806 | 73 | 128 | 3.0 | 9.0 | 0.00 | 0.00 | 0.00 | 73 | 1016.2 |
| 20260905113306 | 74 | 89 | 4.0 | 10.0 | 0.00 | 0.00 | 0.00 | 72 | 1016.3 |
| 20260905113136 | 74 | 99 | 6.0 | 10.0 | 0.00 | 0.00 | 0.00 | 72 | 1016.4 |
| 20260905112307 | 74 | 134 | 2.0 | 7.0 | 0.00 | 0.00 | 0.00 | 71 | 1016.4 |
| 20260905111806 | 74 | 102 | 2.0 | 7.0 | 0.00 | 0.00 | 0.00 | 70 | 1016.4 |
| 20260905111306 | 74 | 109 | 3.0 | 7.0 | 0.00 | 0.00 | 0.00 | 70 | 1016.3 |
| 20260905110807 | 75 | 110 | 5.0 | 7.0 | 0.00 | 0.00 | 0.00 | 69 | 1016.2 |
| 20260905110306 | 75 | 107 | 4.0 | 7.0 | 0.00 | 0.00 | 0.00 | 69 | 1016.1 |
| 20260905105806 | 75 | 99 | 3.0 | 5.0 | 0.00 | 0.00 | 0.00 | 69 | 1016.1 |
| 20260905105310 | 75 | 141 | 2.0 | 7.0 | 0.00 | 0.00 | 0.00 | 68 | 1016.1 |
| 20260905104807 | 75 | 106 | 5.0 | 7.0 | 0.00 | 0.00 | 0.00 | 68 | 1015.9 |
| 20260905104306 | 75 | 111 | 3.0 | 6.0 | 0.00 | 0.00 | 0.00 | 68 | 1016.1 |
| 20260905103808 | 75 | 114 | 3.0 | 6.0 | 0.00 | 0.00 | 0.00 | 67 | 1015.8 |
| 20260905103638 | 75 | 100 | 4.0 | 5.0 | 0.00 | 0.00 | 0.00 | 67 | 1015.9 |
| 20260905102806 | 75 | 104 | 1.0 | 4.0 | 0.00 | 0.00 | 0.00 | 67 | 1015.8 |
| 20260905102306 | 75 | 96 | 2.0 | 4.0 | 0.00 | 0.00 | 0.00 | 67 | 1015.9 |
| 20260905101806 | 76 | 110 | 1.0 | 4.0 | 0.00 | 0.00 | 0.00 | 67 | 1015.8 |
| 20260905101306 | 76 | 131 | 2.0 | 3.0 | 0.00 | 0.00 | 0.00 | 66 | 1015.8 |
| 20260905100806 | 76 | 123 | 1.0 | 3.0 | 0.00 | 0.00 | 0.00 | 66 | 1015.8 |
| 20260905100306 | 76 | 135 | 2.0 | 5.0 | 0.00 | 0.00 | 0.00 | 65 | 1015.8 |
| 20260905095806 | 76 | 140 | 2.0 | 6.0 | 0.00 | 0.00 | 0.00 | 65 | 1015.9 |
| 20260905095306 | 76 | 157 | 2.0 | 6.0 | 0.00 | 0.00 | 0.00 | 65 | 1015.9 |
| 20260905095012 | 76 | 173 | 1.0 | 5.0 | 0.00 | 0.00 | 0.00 | 65 | 1015.9 |
| 20260905094923 | 76 | 159 | 2.0 | 6.0 | 0.00 | 0.00 | 0.00 | 65 | 1015.9 |
| 20260905093808 | 76 | 158 | 1.0 | 4.0 | 0.00 | 0.00 | 0.00 | 64 | 1015.8 |
| 20260905093306 | 77 | 103 | 2.0 | 6.0 | 0.00 | 0.00 | 0.00 | 64 | 1016.1 |
| 20260905093136 | 77 | 152 | 2.0 | 6.0 | 0.00 | 0.00 | 0.00 | 63 | 1016.1 |
| 20260905092631 | 77 | 147 | 2.0 | 7.0 | 0.00 | 0.00 | 0.00 | 63 | 1016.1 |
| 20260905092131 | 77 | 168 | 3.0 | 7.0 | 0.00 | 0.00 | 0.00 | 62 | 1016.2 |
| 20260905091306 | 78 | 134 | 3.0 | 6.0 | 0.00 | 0.00 | 0.00 | 62 | 1016.2 |
| 20260905090807 | 78 | 96 | 3.0 | 7.0 | 0.00 | 0.00 | 0.00 | 62 | 1016.1 |
| 20260905090306 | 78 | 185 | 3.0 | 7.0 | 0.00 | 0.00 | 0.00 | 62 | 1016.2 |
| 20260905085806 | 78 | 165 | 3.0 | 9.0 | 0.00 | 0.00 | 0.00 | 62 | 1016.2 |
| 20260905085306 | 78 | 196 | 2.0 | 10.0 | 0.00 | 0.00 | 0.00 | 61 | 1016.2 |
| 20260905084807 | 78 | 180 | 4.0 | 10.0 | 0.00 | 0.00 | 0.00 | 61 | 1016.2 |
| 20260905084307 | 78 | 125 | 3.0 | 7.0 | 0.00 | 0.00 | 0.00 | 61 | 1016.2 |
| 20260905084013 | 78 | 145 | 3.0 | 7.0 | 0.00 | 0.00 | 0.00 | 61 | 1016.2 |
| 20260905083917 | 78 | 199 | 3.0 | 7.0 | 0.00 | 0.00 | 0.00 | 61 | 1016.3 |
| 20260905083138 | 78 | 183 | 3.0 | 7.0 | 0.00 | 0.00 | 0.00 | 61 | 1016.2 |
| 20260905082307 | 78 | 189 | 2.0 | 9.0 | 0.00 | 0.00 | 0.00 | 61 | 1016.2 |
| 20260905081806 | 78 | 144 | 4.0 | 9.0 | 0.00 | 0.00 | 0.00 | 60 | 1016.2 |
| 20260905081307 | 78 | 180 | 5.0 | 7.0 | 0.00 | 0.00 | 0.00 | 60 | 1016.2 |
| 20260905081143 | 78 | 134 | 3.0 | 6.0 | 0.00 | 0.00 | 0.00 | 60 | 1016.2 |
| 20260905080307 | 78 | 169 | 3.0 | 7.0 | 0.00 | 0.00 | 0.00 | 60 | 1016.1 |
| 20260905075807 | 79 | 186 | 3.0 | 12.0 | 0.00 | 0.00 | 0.00 | 60 | 1016.1 |
| 20260905075306 | 79 | 173 | 4.0 | 12.0 | 0.00 | 0.00 | 0.00 | 59 | 1016.2 |
| 20260905075138 | 79 | 149 | 5.0 | 10.0 | 0.00 | 0.00 | 0.00 | 59 | 1016.2 |
| 20260905074307 | 79 | 197 | 4.0 | 7.0 | 0.00 | 0.00 | 0.00 | 59 | 1016.2 |
| 20260905073805 | 79 | 172 | 5.0 | 10.0 | 0.00 | 0.00 | 0.00 | 59 | 1016.2 |
| 20260905073312 | 79 | 175 | 5.0 | 10.0 | 0.00 | 0.00 | 0.00 | 59 | 1016.2 |
| 20260905072806 | 79 | 188 | 4.0 | 10.0 | 0.00 | 0.00 | 0.00 | 59 | 1016.3 |
| 20260905072307 | 79 | 193 | 4.0 | 9.0 | 0.00 | 0.00 | 0.00 | 59 | 1016.3 |
| 20260905071809 | 79 | 214 | 4.0 | 10.0 | 0.00 | 0.00 | 0.00 | 59 | 1016.2 |
| 20260905071307 | 79 | 107 | 6.0 | 12.0 | 0.00 | 0.00 | 0.00 | 59 | 1016.3 |
| 20260905070806 | 79 | 165 | 5.0 | 12.0 | 0.00 | 0.00 | 0.00 | 59 | 1016.3 |
| 20260905070306 | 80 | 171 | 5.0 | 11.0 | 0.00 | 0.00 | 0.00 | 58 | 1016.3 |
| 20260905065806 | 80 | 213 | 6.0 | 11.0 | 0.00 | 0.00 | 0.00 | 58 | 1016.3 |
| 20260905065307 | 80 | 240 | 5.0 | 12.0 | 0.00 | 0.00 | 0.00 | 58 | 1016.3 |
| 20260905064806 | 80 | 214 | 8.0 | 12.0 | 0.00 | 0.00 | 0.00 | 58 | 1016.3 |
| 20260905064629 | 80 | 204 | 4.0 | 12.0 | 0.00 | 0.00 | 0.00 | 58 | 1016.2 |
| 20260905063806 | 80 | 162 | 5.0 | 12.0 | 0.00 | 0.00 | 0.00 | 58 | 1016.3 |
| 20260905063634 | 80 | 178 | 6.0 | 12.0 | 0.00 | 0.00 | 0.00 | 57 | 1016.4 |
| 20260905062808 | 80 | 228 | 5.0 | 12.0 | 0.00 | 0.00 | 0.00 | 57 | 1016.3 |
| 20260905062309 | 80 | 147 | 5.0 | 10.0 | 0.00 | 0.00 | 0.00 | 57 | 1016.3 |
| 20260905061807 | 81 | 203 | 4.0 | 10.0 | 0.00 | 0.00 | 0.00 | 57 | 1016.3 |
| 20260905061306 | 81 | 169 | 5.0 | 12.0 | 0.00 | 0.00 | 0.00 | 57 | 1016.3 |
| 20260905060808 | 81 | 171 | 5.0 | 13.0 | 0.00 | 0.00 | 0.00 | 56 | 1016.3 |
| 20260905060307 | 81 | 193 | 6.0 | 13.0 | 0.00 | 0.00 | 0.00 | 56 | 1016.2 |
| 20260905060006 | 81 | 79 | 4.0 | 13.0 | 0.00 | 0.00 | 0.00 | 56 | 1016.2 |
| 20260905055918 | 81 | 189 | 3.0 | 13.0 | 0.00 | 0.00 | 0.00 | 56 | 1016.2 |
| 20260905054807 | 81 | 137 | 7.0 | 13.0 | 0.00 | 0.00 | 0.00 | 56 | 1016.2 |
| 20260905054305 | 81 | 183 | 5.0 | 10.0 | 0.00 | 0.00 | 0.00 | 56 | 1016.2 |
| 20260905053806 | 81 | 145 | 5.0 | 11.0 | 0.00 | 0.00 | 0.00 | 56 | 1016.2 |
| 20260905053307 | 81 | 134 | 4.0 | 11.0 | 0.00 | 0.00 | 0.00 | 55 | 1016.1 |
| 20260905052807 | 81 | 140 | 5.0 | 11.0 | 0.00 | 0.00 | 0.00 | 55 | 1015.9 |
| 20260905052306 | 82 | 162 | 5.0 | 11.0 | 0.00 | 0.00 | 0.00 | 55 | 1015.9 |
| 20260905051806 | 82 | 155 | 4.0 | 12.0 | 0.00 | 0.00 | 0.00 | 54 | 1015.9 |
| 20260905051307 | 82 | 173 | 4.0 | 12.0 | 0.00 | 0.00 | 0.00 | 54 | 1016.2 |
| 20260905051144 | 82 | 190 | 4.0 | 9.0 | 0.00 | 0.00 | 0.00 | 54 | 1016.2 |
| 20260905051010 | 82 | 221 | 3.0 | 11.0 | 0.00 | 0.00 | 0.00 | 53 | 1016.3 |
| 20260905045806 | 82 | 193 | 4.0 | 12.0 | 0.00 | 0.00 | 0.00 | 53 | 1016.4 |
| 20260905045307 | 82 | 175 | 7.0 | 12.0 | 0.00 | 0.00 | 0.00 | 53 | 1016.4 |
| 20260905044806 | 83 | 178 | 7.0 | 12.0 | 0.00 | 0.00 | 0.00 | 52 | 1016.6 |
| 20260905044306 | 83 | 196 | 3.0 | 9.0 | 0.00 | 0.00 | 0.00 | 51 | 1016.4 |
| 20260905043806 | 83 | 185 | 4.0 | 9.0 | 0.00 | 0.00 | 0.00 | 51 | 1016.3 |
| 20260905043306 | 83 | 207 | 3.0 | 9.0 | 0.00 | 0.00 | 0.00 | 50 | 1016.4 |
| 20260905043143 | 83 | 173 | 2.0 | 10.0 | 0.00 | 0.00 | 0.00 | 50 | 1016.4 |
| 20260905042307 | 83 | 161 | 3.0 | 11.0 | 0.00 | 0.00 | 0.00 | 49 | 1016.4 |
| 20260905041807 | 84 | 188 | 4.0 | 11.0 | 0.00 | 0.00 | 0.00 | 48 | 1016.4 |
| 20260905041307 | 84 | 133 | 4.0 | 10.0 | 0.00 | 0.00 | 0.00 | 47 | 1016.4 |
| 20260905041131 | 84 | 183 | 3.0 | 10.0 | 0.00 | 0.00 | 0.00 | 47 | 1016.2 |
| 20260905040519 | 85 | 171 | 5.0 | 9.0 | 0.00 | 0.00 | 0.00 | 45 | 1016.2 |
| 20260905040423 | 85 | 199 | 5.0 | 9.0 | 0.00 | 0.00 | 0.00 | 45 | 1016.2 |
| 20260905035308 | 85 | 224 | 4.0 | 9.0 | 0.00 | 0.00 | 0.00 | 44 | 1016.3 |
| 20260905034806 | 86 | 220 | 3.0 | 9.0 | 0.00 | 0.00 | 0.00 | 43 | 1016.2 |
| 20260905034306 | 86 | 137 | 3.0 | 9.0 | 0.00 | 0.00 | 0.00 | 42 | 1016.1 |
| 20260905033806 | 87 | 94 | 3.0 | 12.0 | 0.00 | 0.00 | 0.00 | 41 | 1015.9 |
| 20260905033307 | 87 | 173 | 3.0 | 12.0 | 0.00 | 0.00 | 0.00 | 41 | 1015.9 |
| 20260905032806 | 87 | 124 | 5.0 | 10.0 | 0.00 | 0.00 | 0.00 | 40 | 1015.8 |
| 20260905032306 | 87 | 125 | 4.0 | 6.0 | 0.00 | 0.00 | 0.00 | 39 | 1015.7 |
| 20260905031808 | 88 | 102 | 0.0 | 7.0 | 0.00 | 0.00 | 0.00 | 39 | 1015.7 |
| 20260905031306 | 89 | 152 | 4.0 | 7.0 | 0.00 | 0.00 | 0.00 | 38 | 1015.7 |
| 20260905030806 | 89 | 104 | 3.0 | 5.0 | 0.00 | 0.00 | 0.00 | 37 | 1015.5 |
| 20260905030308 | 89 | 113 | 2.0 | 5.0 | 0.00 | 0.00 | 0.00 | 37 | 1015.4 |
| 20260905025809 | 89 | 133 | 3.0 | 5.0 | 0.00 | 0.00 | 0.00 | 37 | 1015.3 |
| 20260905025633 | 90 | 141 | 2.0 | 5.0 | 0.00 | 0.00 | 0.00 | 36 | 1015.2 |
| 20260905025137 | 90 | 79 | 2.0 | 7.0 | 0.00 | 0.00 | 0.00 | 36 | 1015.1 |
| 20260905024306 | 90 | 216 | 3.0 | 7.0 | 0.00 | 0.00 | 0.00 | 35 | 1015.1 |
| 20260905023805 | 90 | 116 | 3.0 | 7.0 | 0.00 | 0.00 | 0.00 | 36 | 1014.9 |
| 20260905023305 | 90 | 189 | 1.0 | 6.0 | 0.00 | 0.00 | 0.00 | 35 | 1014.9 |
| 20260905022805 | 90 | 190 | 2.0 | 7.0 | 0.00 | 0.00 | 0.00 | 36 | 1014.8 |
| 20260905022306 | 89 | 319 | 4.0 | 7.0 | 0.00 | 0.00 | 0.00 | 37 | 1014.7 |
| 20260905021810 | 89 | 255 | 1.0 | 7.0 | 0.00 | 0.00 | 0.00 | 38 | 1014.8 |
| 20260905021306 | 89 | 0 | 0.0 | 7.0 | 0.00 | 0.00 | 0.00 | 38 | 1014.5 |
| 20260905020805 | 89 | 272 | 2.0 | 6.0 | 0.00 | 0.00 | 0.00 | 38 | 1014.5 |
| 20260905020310 | 88 | 283 | 3.0 | 5.0 | 0.00 | 0.00 | 0.00 | 40 | 1014.5 |
| 20260905020146 | 89 | 243 | 2.0 | 6.0 | 0.00 | 0.00 | 0.00 | 39 | 1014.4 |
| 20260905015309 | 89 | 199 | 2.0 | 9.0 | 0.00 | 0.00 | 0.00 | 38 | 1014.2 |
| 20260905015134 | 89 | 100 | 3.0 | 12.0 | 0.00 | 0.00 | 0.00 | 38 | 1014.0 |
| 20260905014306 | 89 | 103 | 4.0 | 12.0 | 0.00 | 0.00 | 0.00 | 38 | 1014.0 |
| 20260905013805 | 89 | 99 | 6.0 | 12.0 | 0.00 | 0.00 | 0.00 | 38 | 1013.9 |
| 20260905013309 | 90 | 76 | 5.0 | 11.0 | 0.00 | 0.00 | 0.00 | 38 | 1013.8 |
| 20260905012805 | 90 | 111 | 4.0 | 11.0 | 0.00 | 0.00 | 0.00 | 38 | 1013.8 |
| 20260905012306 | 90 | 114 | 5.0 | 11.0 | 0.00 | 0.00 | 0.00 | 38 | 1013.8 |
| 20260905011806 | 90 | 111 | 6.0 | 13.0 | 0.00 | 0.00 | 0.00 | 38 | 1013.8 |
| 20260905011307 | 90 | 120 | 6.0 | 13.0 | 0.00 | 0.00 | 0.00 | 38 | 1013.7 |
| 20260905011027 | 90 | 128 | 5.0 | 13.0 | 0.00 | 0.00 | 0.00 | 38 | 1013.7 |
| 20260905010808 | 90 | 128 | 5.0 | 13.0 | 0.00 | 0.00 | 0.00 | 38 | 1013.7 |
| 20260905010308 | 91 | 157 | 7.0 | 15.0 | 0.00 | 0.00 | 0.00 | 38 | 1013.6 |
| 20260905005806 | 91 | 110 | 5.0 | 15.0 | 0.00 | 0.00 | 0.00 | 38 | 1013.6 |
| 20260905005307 | 91 | 92 | 7.0 | 12.0 | 0.00 | 0.00 | 0.00 | 38 | 1013.7 |
| 20260905004806 | 91 | 61 | 6.0 | 12.0 | 0.00 | 0.00 | 0.00 | 38 | 1013.6 |
| 20260905004306 | 91 | 76 | 6.0 | 12.0 | 0.00 | 0.00 | 0.00 | 38 | 1013.5 |